STARLINK-1707, 46359

Orbit data source: Space-Track

STARLINK-1707, 46359 is a payload satellite owned by SpaceX/Seattle (US) in LEO that was launched on Thu, 03 Sep 2020 UTC via an FALCON 9 launch vehicle from the Air Force Eastern Test Range (AFETR). Payload-class satellites include a variety of spacecraft equipped with specific instruments for various scientific and technological missions. These include communications satellites like Starlink; space stations such as the ISS; scientific satellites like the Hubble; Earth observation satellites from companies like Planet Labs, Umbra, and HawkEye 360; GPS; miniature CubeSats for education and research; and military/defense satellites.

Loading next visibility...
Identifier
46359, 2020-062AL
Orbit
LEO
Country
Flag of USUS
Related business
Manufacturer
SpaceX/Seattle
Mission
Partially operational Commercial Communications
Bus & Motor
STARLINK, Unknown motor
Mass
260 kg wet, ~248 kg dry
Launch date (UTC)
2020-09-03 (5 years ago)
Launch vehicle
FALCON 9
Launch site
Air Force Eastern Test Range (AFETR)
Object type
Payload
Rocket body
Debris
Shape & HBR
Box + 1 Pan, 10.1 m
Radar Cross Section
13.562 m², Large (>1 m²)

Expand to show TLE details & history
Last TLE update: 1 day ago

TLE from 1 day ago
0 STARLINK-1707
1 46359U 20062AL  25352.14773671  .00110085  00000-0  25092-2 0  9995
2 46359  53.0351 307.4777 0005693  34.7593 325.3782 15.42071491293070
Epoch: 2025-12-18T03:32Z
TLE epoch observation values (Epoch: 2025-12-18T03:32:44.451Z)
Latitude
-0.00006°
Longitude
167.28503°
Altitude
437.694 km
Speed
7.652 km/s
True Right ascension
20h 29m 54s
True Declination
0° 00' 00"
Sunlit
Object was in daylight at epoch
Visualization orbit readout
Latitude
Unknown
Longitude
Unknown
Altitude
Unknown
Speed
Unknown
Apparent Right ascension
Unknown
Apparent Declination
Unknown
Sunlit
N/A
Visualization observer readout
Local Sidereal Time
09:39:23
Azimuth
Unknown
Elevation
Unknown
Doppler factor
Unknown
Orbital elements
Apogee altitude
444.156 km
Perigee altitude
436.393 km
Semi-major axis
6,818.412 km
Eccentricity
0.00057
Inclination
53.0351°
RAAN
307.4777°
Arg. of periapsis
34.7593°
True anomaly
325.34111°
Mean anomaly
325.3782°
Eccentric anomaly
325.35966°
Mean motion
3.85495 °/min
Orbital period
93.39 mins
BSTAR
0.0025092
Loading maneuver chart data...
Computing Atmospheric mass density...
Loading historical data...
Loading historical data...
Loading historical data...
Loading historical data...
Loading historical data...
Loading historical data...
Loading historical data...

Documentation

Showing up to 5 results
|